Location: Capvern
(43.1036°N, 0.3160°E)
Time: 11:00:21
(UTC+00:00)

Cosmos 489 Rocket - Pass Details

Date: 04 June 2022
Orbit: 952 x 983 km, 74.0° (Epoch: 01 July)

Event Time Altitude Azimuth Distance (km) Brightness Sun altitude
Rises 03:26:11 0° 329° (NNW) 3,652 7.7 -8.8°
Reaches altitude 10° 03:29:02 10° 318° (NW) 2,705 6.8 -8.4°
Maximum altitude 03:34:12 28° 262° (W) 1,726 5.4 -7.7°
Drops below altitude 10° 03:39:24 10° 206° (SSW) 2,708 6.3 -6.9°
Enters shadow 03:42:03 - 196° (SSW) 3,576 7.0 -6.6°
